Regional Weather Roundup
Issued by NWS

Home | Current Version | Previous Version | Text Only | Print | Product List | Glossary Off
Versions: 1 2 3 4 5 6 7 8 9 10 11 12 13 14 15 16 17 18 19 20 21 22 23 24 25 26 27 28 29 30 31 32 33 34 35 36 37 38 39 40 41 42 43 44 45 46 47 48 49 50

000
ASUS43 KFSD 282002
RWRSD

WEATHER ROUNDUP FOR SOUTH DAKOTA
NATIONAL WEATHER SERVICE SIOUX FALLS SD
200 PM CST WED JAN 28 2015

NOTE: "FAIR" INDICATES FEW OR NO CLOUDS BELOW 12,000 FEET WITH NO
SIGNIFICANT WEATHER AND/OR OBSTRUCTIONS TO VISIBILITY.


SDZ001>005-009-010-012>017-282100-
NORTHWEST AND NORTH CENTRAL SOUTH DAKOTA

CITY           SKY/WX    TMP DP  RH WIND       PRES   REMARKS
BUFFALO          N/A     48  31  51 NW39G48   29.86R
FAITH            N/A     51  28  41 NW26G36   29.83R
MOBRIDGE       CLOUDY    53  36  52 NW20G28   29.74R
$$

SDZ012>016-024>037-041>051-057-063-072>074-282100-
SOUTHWEST AND SOUTH CENTRAL SOUTH DAKOTA

CITY           SKY/WX    TMP DP  RH WIND       PRES   REMARKS
RAPID CTY ARPT CLOUDY    57  25  29 NW32G44   29.90S
PIERRE         PTSUNNY   57  32  38 NW25      29.73F
CUSTER         CLOUDY    45  24  43 NW12G28   29.97R
ELLSWORTH AFB  CLOUDY    56  26  30 NW29G37   29.89F
PHILIP         CLOUDY    56  27  32 NW22G35   29.82R
PINE RIDGE     CLOUDY    56  23  27 N25G32    29.92R
WINNER         FAIR      63  33  32 NW24      29.73S
$$

SDZ004>011-016>023-039-040-282100-
NORTHEAST SOUTH DAKOTA

CITY           SKY/WX    TMP DP  RH WIND       PRES   REMARKS
ABERDEEN       CLOUDY    41  34  76 CALM      29.72R
WATERTOWN      CLOUDY    36  32  85 S3        29.69F
SISSETON         N/A     35  33  92 S7        29.72F WCI  29
$$

SDZ017-020-022-023-036>040-048>070-282100-
SOUTHEAST SOUTH DAKOTA

CITY           SKY/WX    TMP DP  RH WIND       PRES   REMARKS
SIOUX FALLS    PTSUNNY   43  35  73 S6        29.67F
HURON          MOSUNNY   42  35  76 N9        29.69F
MITCHELL       MOSUNNY   47  38  71 NW17      29.70R
YANKTON        MOSUNNY   54  36  50 W14       29.66F
$$

ABBREVIATIONS USED IN REMARKS
   TC - TEMPERATURE IN CELSIUS
  WCI - WIND CHILL INDEX
   HX - HEAT INDEX
  VSB - VISIBILITY



USA.gov is the U.S. government's official web portal to all federal, state and local government web resources and services.